KD9DD-13 Weather Reports


time (UTC)temp
C
wind
direction
speed
KPH
gust
KPH
rain 1hr
cm
rain 24hr
cm
rain mn
cm
humidity
%
barometer
mb
20260906131515 21 242 3.2 8.0 0.00 1.17 0.00 99 1015.7
20260906130519 21 197 4.8 9.7 0.00 1.17 0.00 99 1015.6
20260906125524 21 165 4.8 6.4 0.00 1.17 0.00 99 1015.4
20260906124528 21 166 4.8 8.0 0.00 1.17 0.00 99 1015.4
20260906123526 21 189 1.6 4.8 0.00 1.17 0.00 99 1015.4
20260906122518 21 205 3.2 6.4 0.00 1.17 0.00 99 1015.2
20260906121523 21 220 3.2 6.4 0.00 1.17 0.00 99 1015.2
20260906120541 21 189 4.8 8.0 0.00 1.17 0.00 99 1015.2
20260906115539 21 193 6.4 9.7 0.00 1.17 0.00 99 1015.1
20260906114517 21 186 3.2 8.0 0.00 1.17 0.00 99 1015.1
20260906113515 21 191 6.4 8.0 0.00 1.17 0.00 99 1014.7
20260906112526 21 204 4.8 9.7 0.00 1.17 0.00 99 1014.6
20260906111550 21 187 6.4 11.3 0.00 1.17 0.00 99 1014.4
20260906110516 21 178 3.2 6.4 0.00 1.17 0.00 98 1014.3
20260906105520 21 222 3.2 6.4 0.00 1.17 0.00 98 1014.1
20260906104524 21 187 4.8 6.4 0.00 1.17 0.00 98 1014.1
20260906103529 21 195 1.6 6.4 0.00 1.17 0.00 97 1014.1
20260906102515 21 188 3.2 4.8 0.00 1.17 0.00 97 1014.1
20260906101519 21 0.0 0.0 0.00 1.17 0.00 97 1014.1
20260906100524 22 179 1.6 4.8 0.00 1.17 0.00 97 1014.0
20260906095529 22 194 3.2 4.8 0.00 1.17 0.00 97 1014.0
20260906094533 22 173 3.2 4.8 0.00 1.17 0.00 97 1013.7
20260906093518 22 190 4.8 6.4 0.00 1.17 0.00 96 1013.6
20260906092522 22 189 3.2 4.8 0.00 1.17 0.00 96 1013.6
20260906091527 22 190 1.6 4.8 0.00 1.17 0.00 96 1013.6
20260906090531 22 161 4.8 6.4 0.00 1.17 0.00 96 1013.6
20260906085517 23 182 6.4 8.0 0.00 1.17 0.00 96 1013.7
20260906084522 23 172 4.8 8.0 0.00 1.17 0.00 95 1013.6
20260906083526 23 192 4.8 6.4 0.00 1.17 0.00 95 1013.6
20260906082630 23 182 4.8 6.4 0.00 1.17 0.00 95 1013.6
20260906081536 23 174 4.8 8.0 0.00 1.17 0.00 95 1013.6
20260906080521 23 176 3.2 4.8 0.00 1.17 0.00 95 1013.5
20260906075525 24 0.0 4.8 0.00 1.17 0.00 94 1013.4
20260906074529 24 199 3.2 4.8 0.00 1.17 0.00 94 1013.4
20260906073515 25 203 3.2 4.8 0.00 1.17 0.00 93 1013.5
20260906072519 25 213 4.8 6.4 0.00 1.17 0.00 92 1013.6
20260906071544 25 219 3.2 4.8 0.00 1.17 0.00 92 1013.6
20260906070527 25 193 4.8 8.0 0.00 1.17 0.00 92 1013.6
20260906065546 25 163 3.2 4.8 0.00 1.17 0.00 92 1013.6
20260906064538 25 195 3.2 4.8 0.00 1.17 0.00 92 1013.5
20260906063522 25 187 3.2 4.8 0.00 1.17 0.00 91 1013.5
20260906062541 25 207 3.2 8.0 0.00 1.17 0.00 91 1013.4
20260906061520 25 167 3.2 6.4 0.00 1.17 0.00 91 1013.4
20260906060519 26 203 3.2 8.0 0.00 1.17 0.00 92 1013.4
20260906055515 26 210 3.2 4.8 0.00 1.17 0.00 93 1013.4
20260906054526 26 197 3.2 6.4 0.00 1.17 0.00 93 1013.5
20260906053530 26 197 3.2 6.4 0.00 1.17 0.00 93 1013.4
20260906052516 26 200 3.2 6.4 0.00 1.17 0.00 93 1013.3
20260906051520 26 204 4.8 6.4 0.00 1.17 0.00 93 1013.3
20260906050524 26 159 4.8 6.4 0.00 1.17 0.00 93 1013.3
20260906045550 26 151 3.2 6.4 0.00 1.17 1.17 93 1013.2
20260906044533 26 8 1.6 6.4 0.00 1.17 1.17 92 1013.0
20260906043519 27 185 4.8 6.4 0.00 1.17 1.17 92 1012.9
20260906042523 26 189 1.6 6.4 0.00 1.17 1.17 93 1012.8
20260906041527 26 0.0 0.0 0.00 1.17 1.17 94 1012.6
20260906040532 26 188 1.6 4.8 0.00 1.17 1.17 94 1012.6
20260906035539 26 0.0 1.6 0.00 1.17 1.17 95 1012.5
20260906034522 25 0.0 0.0 0.00 1.17 1.17 99 1012.6
20260906033526 25 0.0 0.0 0.00 1.17 1.17 99 1012.4
20260906032530 25 0.0 0.0 0.00 1.17 1.17 98 1012.4
20260906031537 25 0.0 0.0 0.00 1.17 1.17 98 1012.4
20260906030521 25 0.0 0.0 0.00 1.17 1.17 98 1012.3
20260906025525 25 0.0 0.0 0.00 1.17 1.17 98 1012.1
20260906024529 25 0.0 0.0 0.00 1.17 1.17 98 1012.1
20260906023516 25 0.0 0.0 0.00 1.17 1.17 98 1011.9
20260906022520 25 0.0 0.0 0.00 1.17 1.17 98 1011.8
20260906021524 25 0.0 0.0 0.00 1.17 1.17 98 1011.7
20260906020528 25 0.0 0.0 0.00 1.17 1.17 98 1011.6
20260906015533 25 0.0 0.0 0.00 1.17 1.17 98 1011.5
20260906014520 25 0.0 0.0 0.00 1.17 1.17 98 1011.4
20260906013523 25 0.0 0.0 0.00 1.17 1.17 97 1011.2
20260906012547 25 0.0 0.0 0.00 1.17 1.17 97 1011.1
20260906011525 25 0.0 0.0 0.00 1.17 1.17 97 1011.0
20260906010517 25 0.0 0.0 0.00 1.17 1.17 97 1010.9
20260906005522 25 0.0 0.0 0.00 1.17 1.17 96 1010.8
20260906004543 26 0.0 0.0 0.00 1.17 1.17 96 1010.9
20260906003518 26 0.0 0.0 0.00 1.17 1.17 96 1010.8
20260906002517 26 0.0 0.0 0.00 1.17 1.17 95 1010.7
20260906001522 26 0.0 0.0 0.00 1.17 1.17 94 1010.7
20260906000525 26 0.0 0.0 0.00 1.17 1.17 93 1010.7
20260905235529 26 0.0 0.0 0.00 1.17 1.17 93 1010.8
20260905234515 26 0.0 0.0 0.00 1.17 1.17 94 1010.9
20260905233519 26 0.0 0.0 0.33 1.17 1.17 96 1010.8
20260905232523 26 0.0 0.0 0.91 1.17 1.17 95 1010.9
20260905231529 26 180 1.6 4.8 1.17 1.17 1.17 95 1010.9
20260905230532 26 0.0 1.6 1.17 1.17 1.17 92 1010.9
20260905225518 26 150 0.0 3.2 1.17 1.17 1.17 92 1010.8
20260905224524 26 3 3.2 6.4 1.17 1.17 1.17 84 1011.5
20260905223526 28 93 9.7 16.1 0.84 0.84 0.84 78 1012.0
20260905222531 31 159 6.4 11.3 0.25 0.25 0.25 74 1010.9
20260905221517 31 180 0.0 1.6 0.00 0.00 0.00 68 1011.1
20260905220521 32 189 8.0 12.9 0.00 0.00 0.00 64 1011.1
20260905215525 36 166 4.8 8.0 0.00 0.00 0.00 48 1010.8
20260905214529 36 184 4.8 8.0 0.00 0.00 0.00 49 1010.4
20260905213516 36 183 4.8 8.0 0.00 0.00 0.00 48 1010.6
20260905212520 37 123 6.4 11.3 0.00 0.00 0.00 47 1010.7
20260905211546 38 160 8.0 16.1 0.00 0.00 0.00 45 1010.8
20260905210550 39 176 4.8 8.0 0.00 0.00 0.00 43 1010.8
20260905205532 39 167 6.4 11.3 0.00 0.00 0.00 43 1010.8
20260905204519 39 177 4.8 8.0 0.00 0.00 0.00 43 1010.9
20260905203523 39 153 4.8 6.4 0.00 0.00 0.00 44 1010.9
20260905202529 38 142 6.4 8.0 0.00 0.00 0.00 44 1011.0
20260905201531 38 174 8.0 12.9 0.00 0.00 0.00 44 1011.1
20260905200517 39 195 4.8 9.7 0.00 0.00 0.00 43 1011.2
20260905195522 39 139 4.8 8.0 0.00 0.00 0.00 43 1011.3
20260905194526 39 166 6.4 11.3 0.00 0.00 0.00 43 1011.3
20260905193525 40 147 6.4 9.7 0.00 0.00 0.00 42 1011.5
20260905192538 40 164 4.8 8.0 0.00 0.00 0.00 43 1011.7
20260905191540 40 185 4.8 6.4 0.00 0.00 0.00 43 1011.7
20260905190519 40 213 4.8 6.4 0.00 0.00 0.00 44 1011.7
20260905185517 40 103 4.8 11.3 0.00 0.00 0.00 43 1011.9
20260905184515 40 118 4.8 11.3 0.00 0.00 0.00 43 1012.1
20260905183519 40 135 6.4 11.3 0.00 0.00 0.00 44 1012.2
20260905182523 40 128 4.8 6.4 0.00 0.00 0.00 45 1012.4
20260905181528 39 331 4.8 8.0 0.00 0.00 0.00 46 1012.5
20260905180552 39 122 4.8 8.0 0.00 0.00 0.00 46 1012.5
20260905175518 39 169 3.2 6.4 0.00 0.00 0.00 48 1012.5
20260905174524 38 155 3.2 4.8 0.00 0.00 0.00 49 1012.5
20260905173526 38 104 4.8 11.3 0.00 0.00 0.00 49 1012.5
20260905172533 38 192 4.8 8.0 0.00 0.00 0.00 51 1012.7
20260905171539 38 300 3.2 4.8 0.00 0.00 0.00 52 1012.8
20260905170521 37 171 4.8 6.4 0.00 0.00 0.00 53 1012.9
20260905165649 37 354 3.2 6.4 0.00 0.00 0.00 53 1013.0
20260905164531 36 182 4.8 6.4 0.00 0.00 0.00 54 1013.2
20260905163516 37 141 3.2 4.8 0.00 0.00 0.00 54 1013.4
20260905162520 36 74 3.2 4.8 0.00 0.00 0.00 56 1013.4
20260905161546 35 261 3.2 4.8 0.00 0.00 0.00 57 1013.4
20260905160528 35 321 3.2 6.4 0.00 0.00 0.00 59 1013.4
20260905155553 33 17 1.6 3.2 0.00 0.00 0.00 62 1013.4
20260905154519 32 195 1.6 6.4 0.00 0.00 0.00 65 1013.5
20260905153523 32 171 3.2 6.4 0.00 0.00 0.00 66 1013.4
20260905152527 32 156 3.2 6.4 0.00 0.00 0.00 68 1013.4
20260905151551 31 34 3.2 4.8 0.00 0.00 0.00 69 1013.4
20260905150519 31 78 3.2 4.8 0.00 0.00 0.00 70 1013.3
20260905145522 30 127 1.6 4.8 0.00 0.00 0.00 74 1013.3
20260905144526 30 299 1.6 4.8 0.00 0.00 0.00 74 1013.2
20260905143532 30 149 3.2 4.8 0.00 0.00 0.00 76 1013.3
20260905142517 29 132 3.2 6.4 0.00 0.00 0.00 76 1013.3
20260905141521 29 0 0.0 3.2 0.00 0.00 0.00 77 1013.3
20260905140547 28 179 1.6 8.0 0.00 0.00 0.00 76 1013.4
20260905135523 28 145 1.6 6.4 0.00 0.00 0.00 79 1013.4
20260905134520 28 0.0 0.0 0.00 0.00 0.00 80 1013.3
20260905133519 27 0.0 4.8 0.00 0.00 0.00 84 1013.3
20260905132518 27 350 0.0 3.2 0.00 0.00 0.00 87 1013.2